FW6210 Weather Reports


time (UTC)temp
C
wind
direction
speed
KPH
gust
KPH
rain 1hr
cm
rain 24hr
cm
rain mn
cm
humidity
%
barometer
mb
20260505173057 0 210 0.0 1.6 0.05 0.84 0.84 95 1005.6
20260505171557 0 209 0.0 1.6 0.08 0.84 0.84 95 1005.4
20260505170057 0 209 0.0 1.6 0.08 0.81 0.81 95 1005.3
20260505164602 0 209 0.0 0.0 0.08 0.79 0.79 95 1005.2
20260505163100 0 209 0.0 1.6 0.08 0.79 0.79 96 1005.1
20260505161554 0 209 0.0 1.6 0.08 0.76 0.76 96 1004.8
20260505153108 0 209 0.0 1.6 0.13 0.71 0.71 96 1004.4
20260505151557 0 209 0.0 0.0 0.13 0.69 0.69 96 1004.6
20260505124547 0 209 0.0 0.0 0.28 0.51 0.51 94 1004.6
20260505123043 1 209 0.0 3.2 0.30 0.46 0.46 94 1004.4
20260505121542 1 209 0.0 1.6 0.28 0.38 0.38 93 1004.7
20260505120037 1 209 0.0 1.6 0.28 0.30 0.30 92 1005.0
20260505114539 2 209 0.0 1.6 0.23 0.23 0.23 93 1004.9
20260505113031 2 209 0.0 1.6 0.15 0.15 0.15 93 1004.9
20260505111535 2 208 1.6 3.2 0.10 0.10 0.10 93 1004.9
20260505101524 2 117 0.0 0.0 0.00 0.00 0.00 92 1005.1
20260505100029 2 117 0.0 0.0 0.00 0.00 0.00 92 1005.3
20260505094522 2 117 0.0 0.0 0.00 0.00 0.00 92 1005.3
20260505093020 2 117 0.0 0.0 0.00 0.00 0.00 92 1005.6
20260505091518 2 117 0.0 0.0 0.00 0.00 0.00 92 1005.7
20260505090026 2 117 0.0 0.0 0.00 0.00 0.00 92 1005.8
20260505084517 2 117 0.0 0.0 0.00 0.00 0.00 92 1005.9
20260505083024 2 117 0.0 0.0 0.00 0.00 0.00 92 1006.1
20260505081513 2 117 0.0 0.0 0.00 0.00 0.00 92 1006.4
20260505080011 2 117 0.0 0.0 0.00 0.00 0.00 92 1006.6
20260505074510 2 117 0.0 0.0 0.00 0.00 0.00 93 1006.8
20260505073009 2 117 0.0 0.0 0.00 0.00 0.00 93 1006.8
20260505071515 2 117 0.0 0.0 0.00 0.00 0.00 92 1007.1
20260505070006 2 117 0.0 0.0 0.00 0.00 0.00 92 1007.2
20260505064505 2 117 0.0 0.0 0.00 0.00 0.00 92 1007.2
20260505063003 2 117 0.0 0.0 0.00 0.00 0.00 91 1007.5
20260505061508 2 117 0.0 0.0 0.00 0.00 0.00 90 1007.4
20260505060100 2 117 0.0 0.0 0.00 0.00 0.00 89 1007.4
20260505054626 2 117 0.0 0.0 0.00 0.00 0.00 89 1007.3
20260505053058 2 117 0.0 0.0 0.00 0.00 0.00 88 1007.5
20260505051559 2 117 0.0 0.0 0.00 0.00 0.00 87 1007.3
20260505041555 2 117 0.0 0.0 0.00 0.00 0.00 85 1007.3
20260505040058 2 117 0.0 0.0 0.00 0.00 0.00 85 1007.4
20260505034553 3 117 0.0 0.0 0.00 0.00 0.00 84 1007.1
20260505033054 2 26 0.0 0.0 0.00 0.00 0.00 84 1007.0
20260505031550 2 26 0.0 0.0 0.00 0.00 0.00 84 1006.9
20260505030050 3 26 0.0 3.2 0.00 0.00 0.00 83 1006.6
20260505024606 3 26 0.0 3.2 0.00 0.00 0.00 82 1006.2
20260505023050 4 27 0.0 3.2 0.00 0.00 0.00 81 1005.9
20260505021603 5 27 0.0 3.2 0.00 0.00 0.00 79 1005.6
20260505020048 5 27 1.6 3.2 0.00 0.00 0.00 77 1005.4
20260505014547 6 26 0.0 1.6 0.00 0.00 0.00 73 1005.2
20260505013047 7 26 0.0 4.8 0.00 0.00 0.00 69 1005.3
20260505011552 7 48 1.6 4.8 0.00 0.00 0.00 67 1005.2
20260505010044 6 29 0.0 3.2 0.00 0.00 0.00 69 1005.2
20260505004546 6 28 0.0 3.2 0.00 0.00 0.00 69 1005.3
20260505003043 6 31 0.0 3.2 0.00 0.00 0.00 69 1005.5
20260505001542 6 38 0.0 4.8 0.00 0.00 0.00 71 1005.5
20260505000044 6 38 0.0 8.0 0.00 0.00 0.00 73 1005.6
20260504234542 6 10 1.6 6.4 0.00 0.00 0.00 76 1005.6
20260504233055 5 340 1.6 6.4 0.00 0.00 0.00 73 1006.6
20260504231540 6 36 3.2 6.4 0.00 0.00 0.00 69 1006.5
20260504230043 6 27 1.6 11.3 0.00 0.00 0.00 68 1006.2
20260504224539 6 314 1.6 3.2 0.00 0.00 0.00 71 1006.1
20260504223041 6 20 0.0 1.6 0.00 0.00 0.00 76 1005.8
20260504221545 6 31 0.0 4.8 0.00 0.00 0.00 74 1005.9
20260504220052 7 333 0.0 4.8 0.00 0.00 0.00 69 1005.6
20260504214539 7 158 6.4 14.5 0.00 0.00 0.00 64 1005.5
20260504213037 8 347 3.2 9.7 0.00 0.00 0.00 61 1005.6
20260504211536 10 291 1.6 9.7 0.00 0.00 0.00 56 1005.1
20260504210036 11 318 1.6 8.0 0.00 0.00 0.00 50 1004.5
20260504204553 11 41 0.0 4.8 0.00 0.00 0.00 46 1004.4
20260504203037 11 325 0.0 9.7 0.00 0.00 0.00 51 1004.6
20260504201535 11 355 3.2 14.5 0.00 0.00 0.00 51 1004.7
20260504200042 11 13 3.2 19.3 0.00 0.00 0.00 48 1004.7
20260504194539 12 38 3.2 12.9 0.00 0.00 0.00 46 1004.6
20260504193033 13 70 3.2 20.9 0.00 0.00 0.00 48 1004.4
20260504191533 13 231 4.8 11.3 0.00 0.00 0.00 46 1004.6
20260504190036 13 225 3.2 9.7 0.00 0.00 0.00 46 1004.9
20260504184534 13 316 3.2 11.3 0.00 0.00 0.00 45 1005.4
20260504183025 13 63 3.2 12.9 0.00 0.00 0.00 44 1005.6
20260504181523 12 184 3.2 12.9 0.00 0.00 0.00 50 1005.8
20260504180018 12 71 3.2 8.0 0.00 0.00 0.00 49 1006.0
20260504174514 11 324 4.8 12.9 0.00 0.00 0.00 53 1006.3